Date String (YYYY-MM-DD hh:mm:ss) UTC,Instrument flags,Ambient pressure (hPa),Sample flow (lpm),Bypass flow (lpm),Sample temperature (°C),Ambient temperature (°C),ASC tube jacket temperature (°C),LED temperature (°C),Box temperature (°C),Sample RH (%),Span deviation,Mass concentration (μg/m³),Mass concentration (μg/m³),Mass concentration (μg/m³)
DateTimeUTC,F1_M11,P_M11,Q1_M11,Q2_M11,T1_M11,T2_M11,T3_M11,T4_M11,T5_M11,U1_M11,ZSPAN_M11,X0_M11,X2_M11,X1_M11
2022-07-12 07:00:00,,0831.5,4.99,0.00,29.7,27.5,00.0,38.5,31.4,30.6,0000.0,0018.56,0011.37,0010.15
2022-07-12 07:01:00,,0831.4,5.00,0.00,29.7,27.6,00.0,38.5,31.4,30.6,0000.0,0018.40,0011.27,0010.07
2022-07-12 07:02:00,,0831.4,5.01,0.00,29.7,27.8,00.0,38.5,31.4,30.6,0000.0,0018.19,0011.19,0010.00
2022-07-12 07:03:00,,0831.4,4.99,0.00,29.7,27.9,00.0,38.5,31.4,30.6,0000.0,0017.89,0011.15,0009.93
2022-07-12 07:04:00,,0831.5,5.00,0.00,29.7,28.0,00.0,38.5,31.5,30.6,0000.0,0017.76,0011.16,0009.86
2022-07-12 07:05:00,,0831.4,4.99,0.00,29.7,28.1,00.0,38.5,31.5,30.5,0000.0,0017.75,0011.10,0009.81
2022-07-12 07:06:00,,0831.3,5.00,0.00,29.7,28.2,00.0,38.5,31.5,30.5,0000.0,0017.08,0011.03,0009.77
2022-07-12 07:07:00,,0831.3,4.99,0.00,29.7,28.3,00.0,38.5,31.5,30.5,0000.0,0016.93,0011.01,0009.76
2022-07-12 07:08:00,,0831.3,5.00,0.00,29.7,28.4,00.0,38.5,31.6,30.4,0000.0,0016.13,0010.94,0009.72
2022-07-12 07:09:00,,0831.3,5.00,0.00,29.7,28.5,00.0,38.5,31.6,30.4,0000.0,0015.75,0010.86,0009.70
2022-07-12 07:10:00,,0831.3,4.99,0.00,29.7,28.5,00.0,38.5,31.6,30.3,0000.0,0015.57,0010.81,0009.67
2022-07-12 07:11:00,,0831.3,5.00,0.00,29.8,28.6,00.0,38.5,31.7,30.2,0000.0,0015.58,0010.76,0009.63
2022-07-12 07:12:00,,0831.2,5.00,0.00,29.8,28.6,00.0,38.6,31.7,30.1,0000.0,0016.12,0010.74,0009.60
2022-07-12 07:13:00,,0831.2,5.00,0.00,29.8,28.7,00.0,38.6,31.7,30.1,0000.0,0016.18,0010.71,0009.58
2022-07-12 07:14:00,,0831.2,5.00,0.00,29.8,28.7,00.0,38.6,31.8,30.1,0000.0,0016.84,0010.67,0009.56
2022-07-12 07:15:00,,0831.2,5.00,0.00,29.9,28.8,00.0,38.6,31.8,30.1,0000.0,0017.93,0010.60,0009.54
2022-07-12 07:16:00,,0831.2,5.00,0.00,29.9,28.8,00.0,38.6,31.8,29.9,0000.0,0017.51,0010.53,0009.50
2022-07-12 07:17:00,,0831.2,5.00,0.00,29.9,28.8,00.0,38.6,31.8,29.9,0000.0,0018.06,0010.50,0009.46
2022-07-12 07:18:00,,0831.2,5.00,0.00,29.9,28.9,00.0,38.7,31.8,29.9,0000.0,0018.02,0010.45,0009.41
2022-07-12 07:19:00,,0831.1,5.00,0.00,29.9,28.9,00.0,38.7,31.9,29.8,0000.0,0018.11,0010.43,0009.39
2022-07-12 07:20:00,,0831.2,5.00,0.00,30.0,28.9,00.0,38.7,31.9,29.8,0000.0,0018.50,0010.38,0009.37
2022-07-12 07:21:00,,0831.2,5.00,0.00,30.0,28.9,00.0,38.7,31.9,29.8,0000.0,0018.74,0010.37,0009.35
2022-07-12 07:22:00,,0831.2,5.00,0.00,30.0,29.0,00.0,38.7,31.9,29.7,0000.0,0019.49,0010.41,0009.35
2022-07-12 07:23:00,,0831.2,5.01,0.00,30.0,28.7,00.0,38.7,31.9,29.7,0000.0,0019.87,0010.47,0009.37
2022-07-12 07:24:00,,0831.2,5.00,0.00,30.0,27.9,00.0,38.6,31.8,29.7,0000.0,0020.31,0010.51,0009.38
2022-07-12 07:25:00,,0831.2,4.99,0.00,29.9,27.4,00.0,38.6,31.7,29.8,0000.0,0020.22,0010.54,0009.36
2022-07-12 07:26:00,,0831.1,5.00,0.00,29.8,27.4,00.0,38.6,31.5,29.9,0000.0,0019.44,0010.56,0009.35
2022-07-12 07:27:00,,0831.1,5.00,0.00,29.8,27.5,00.0,38.6,31.5,30.0,0000.0,0019.68,0010.55,0009.37
2022-07-12 07:28:00,,0831.0,5.00,0.00,29.7,27.6,00.0,38.6,31.4,30.1,0000.0,0019.10,0010.56,0009.42
2022-07-12 07:29:00,,0831.0,5.00,0.00,29.7,27.7,00.0,38.6,31.4,30.1,0000.0,0019.28,0010.56,0009.44
2022-07-12 07:30:00,,0831.0,5.01,0.00,29.7,27.9,00.0,38.5,31.5,30.1,0000.0,0019.75,0010.55,0009.45
2022-07-12 07:31:00,,0831.0,5.00,0.00,29.7,28.0,00.0,38.5,31.5,30.1,0000.0,0019.60,0010.60,0009.46
2022-07-12 07:32:00,,0831.0,5.00,0.00,29.7,28.1,00.0,38.5,31.5,30.1,0000.0,0019.80,0010.62,0009.47
2022-07-12 07:33:00,,0831.0,5.00,0.00,29.7,28.2,00.0,38.5,31.5,30.1,0000.0,0019.12,0010.60,0009.48
2022-07-12 07:34:00,,0830.9,4.99,0.00,29.7,28.3,00.0,38.5,31.6,30.0,0000.0,0018.36,0010.54,0009.48
2022-07-12 07:35:00,,0830.9,5.00,0.00,29.7,28.4,00.0,38.6,31.6,30.0,0000.0,0017.68,0010.49,0009.48
2022-07-12 07:36:00,,0830.9,5.00,0.00,29.8,28.5,00.0,38.6,31.6,30.0,0000.0,0017.32,0010.50,0009.49
2022-07-12 07:37:00,,0830.9,5.00,0.00,29.8,28.5,00.0,38.6,31.6,30.0,0000.0,0016.59,0010.47,0009.49
2022-07-12 07:38:00,,0830.9,5.00,0.00,29.8,28.6,00.0,38.6,31.7,29.9,0000.0,0016.75,0010.49,0009.49
2022-07-12 07:39:00,,0830.9,5.00,0.00,29.8,28.6,00.0,38.6,31.7,29.9,0000.0,0016.97,0010.51,0009.48
2022-07-12 07:40:00,,0831.0,5.01,0.00,29.8,28.7,00.0,38.6,31.7,29.9,0000.0,0017.16,0010.59,0009.49
2022-07-12 07:41:00,,0830.9,5.00,0.00,29.8,28.7,00.0,38.6,31.7,29.9,0000.0,0017.04,0010.60,0009.50
2022-07-12 07:42:00,,0830.9,5.00,0.00,29.9,28.7,00.0,38.6,31.8,29.8,0000.0,0016.87,0010.58,0009.51
2022-07-12 07:43:00,,0830.9,5.00,0.00,29.9,28.8,00.0,38.6,31.8,29.8,0000.0,0016.23,0010.53,0009.51
2022-07-12 07:44:00,,0830.9,5.00,0.00,29.9,28.8,00.0,38.7,31.8,29.8,0000.0,0016.36,0010.55,0009.51
2022-07-12 07:45:00,,0830.9,5.00,0.00,29.9,28.9,00.0,38.7,31.9,29.7,0000.0,0016.70,0010.59,0009.52
2022-07-12 07:46:00,,0830.8,5.00,0.00,29.9,28.9,00.0,38.7,31.9,29.7,0000.0,0017.31,0010.68,0009.54
2022-07-12 07:47:00,,0830.9,5.00,0.00,30.0,28.9,00.0,38.7,31.9,29.6,0000.0,0017.47,0010.64,0009.55
2022-07-12 07:48:00,,0830.9,5.00,0.00,30.0,28.9,00.0,38.7,31.9,29.6,0000.0,0017.83,0010.63,0009.54
2022-07-12 07:49:00,,0830.9,4.99,0.00,30.0,29.0,00.0,38.7,31.9,29.5,0000.0,0018.30,0010.68,0009.55
2022-07-12 07:50:00,,0830.9,5.00,0.00,30.0,29.0,00.0,38.8,31.9,29.5,0000.0,0018.14,0010.67,0009.56
2022-07-12 07:51:00,,0830.9,5.00,0.00,30.1,29.0,00.0,38.8,32.0,29.4,0000.0,0017.91,0010.65,0009.55
2022-07-12 07:52:00,,0830.9,5.00,0.00,30.1,29.0,00.0,38.8,32.0,29.4,0000.0,0017.62,0010.67,0009.54
2022-07-12 07:53:00,,0830.9,5.00,0.00,30.1,28.7,00.0,38.8,31.9,29.3,0000.0,0017.91,0010.72,0009.54
2022-07-12 07:54:00,,0830.9,5.00,0.00,30.0,27.9,00.0,38.7,31.8,29.4,0000.0,0018.50,0010.75,0009.55
2022-07-12 07:55:00,,0830.8,5.00,0.00,30.0,27.5,00.0,38.7,31.7,29.5,0000.0,0018.22,0010.73,0009.53
2022-07-12 07:56:00,,0830.8,4.99,0.00,29.9,27.5,00.0,38.7,31.5,29.7,0000.0,0018.33,0010.70,0009.52
2022-07-12 07:57:00,,0830.8,5.00,0.00,29.8,27.5,00.0,38.6,31.5,29.8,0000.0,0018.73,0010.63,0009.51
2022-07-12 07:58:00,,0830.7,5.00,0.00,29.8,27.7,00.0,38.6,31.5,29.8,0000.0,0018.74,0010.61,0009.50
2022-07-12 07:59:00,,0830.7,5.00,0.00,29.7,27.8,00.0,38.6,31.5,29.8,0000.0,0018.78,0010.64,0009.51
